Temperature
7 7 7 7 7 6 6 6 6 7 6 8 5 2 2 1 0 -0 -1 -1 -2 -2 -3 -3 -4 -4 -5 -5 -5 -6 -7 -7 -8 -9 -10 -11 -11 -12 -12 -12 -12 -12 -11 -11
7 8 7 6 6 6 5 6 5 6 7 6 4 3 1 0 0 -0 -0 -1 -2 -2 -3 -3 -4 -4 -4 -5 -5 -6 -7 -8 -8 -9 -10 -11 -11 -12 -12 -12 -12 -12 -12 -11
8 7 8 9 9 6 6 5 6 7 8 4 1 0 0 1 1 1 0 -1 -2 -2 -3 -3 -4 -4 -4 -5 -5 -6 -7 -7 -8 -9 -10 -11 -11 -12 -12 -12 -12 -12 -12 -12
6 8 12 12 9 7 7 7 5 5 5 3 4 3 3 3 3 1 0 -1 -2 -2 -3 -3 -4 -4 -5 -5 -5 -6 -7 -7 -8 -9 -10 -10 -11 -12 -12 -12 -13 -13 -13 -12
6 8 9 9 8 7 7 8 6 5 5 3 1 1 1 2 2 1 0 -1 -2 -2 -3 -3 -4 -4 -5 -5 -5 -6 -7 -7 -8 -9 -9 -10 -11 -11 -12 -12 -13 -13 -13 -13
5 9 10 12 8 7 8 8 9 7 5 0 -1 -0 2 4 2 0 -1 -1 -2 -2 -3 -3 -4 -4 -5 -5 -5 -6 -7 -8 -8 -9 -9 -10 -10 -11 -11 -12 -13 -13 -13 -13
4 6 8 8 7 7 9 11 12 10 8 3 1 4 5 5 2 1 -0 -1 -2 -2 -3 -3 -4 -4 -5 -5 -5 -6 -7 -7 -8 -9 -9 -10 -10 -11 -11 -11 -12 -12 -12 -13
3 4 8 8 5 6 10 12 12 11 10 8 7 5 4 4 3 1 -0 -1 -1 -2 -2 -3 -4 -4 -4 -5 -5 -6 -7 -7 -8 -8 -9 -9 -10 -10 -10 -11 -11 -12 -12 -12
6 10 12 10 12 15 14 13 12 11 10 9 7 5 4 3 2 1 -0 -1 -1 -2 -2 -3 -3 -4 -4 -5 -5 -6 -6 -7 -7 -8 -9 -9 -10 -10 -10 -10 -11 -12 -12 -12
4 7 10 11 13 14 13 13 12 11 10 9 8 6 5 3 2 1 -0 -1 -1 -2 -2 -3 -3 -4 -4 -5 -5 -5 -6 -6 -7 -7 -8 -8 -9 -10 -10 -10 -11 -11 -12 -12
5 6 10 14 17 17 16 14 12 10 9 8 7 6 5 4 2 1 0 -1 -1 -2 -2 -3 -3 -4 -4 -5 -5 -5 -6 -6 -6 -7 -7 -7 -8 -9 -10 -10 -11 -11 -11 -11
12 13 11 16 17 16 15 14 13 11 9 7 7 6 5 4 3 1 0 -1 -1 -2 -2 -3 -3 -4 -4 -4 -5 -5 -5 -6 -6 -6 -6 -7 -7 -7 -8 -9 -10 -11 -11 -11
17 18 17 17 16 15 14 14 12 11 9 8 6 5 4 4 2 1 0 -1 -1 -2 -2 -3 -3 -4 -4 -4 -5 -5 -5 -5 -5 -6 -6 -6 -6 -7 -7 -7 -8 -10 -10 -11
17 16 15 16 16 15 13 12 11 10 8 7 6 5 4 3 2 1 0 -0 -1 -2 -2 -3 -3 -4 -4 -4 -4 -5 -5 -5 -5 -5 -6 -6 -6 -7 -7 -7 -8 -8 -9 -10
15 15 16 16 15 13 12 11 10 9 8 6 5 5 4 3 2 2 1 -1 -1 -2 -2 -3 -3 -3 -4 -4 -4 -4 -5 -5 -5 -5 -5 -6 -6 -6 -7 -7 -8 -8 -9 -10
16 16 15 14 14 13 11 11 10 10 8 7 5 4 4 4 3 2 0 -1 -1 -1 -2 -2 -3 -3 -4 -4 -4 -4 -4 -5 -5 -5 -5 -6 -6 -6 -7 -7 -7 -8 -9 -10
14 15 15 15 15 14 14 13 12 10 9 7 6 5 4 3 2 1 -0 -1 -1 -2 -2 -3 -3 -3 -3 -4 -4 -4 -4 -5 -5 -5 -6 -6 -6 -6 -7 -7 -7 -8 -9 -10
16 17 17 16 15 14 13 12 11 10 9 8 6 5 4 3 2 2 0 -1 -1 -2 -2 -2 -3 -3 -3 -4 -4 -4 -4 -5 -5 -5 -6 -6 -6 -7 -7 -7 -7 -8 -8 -9
18 18 18 17 16 14 13 12 12 10 9 7 6 5 4 4 3 2 1 -1 -1 -1 -1 -2 -3 -3 -3 -4 -4 -4 -4 -5 -5 -5 -6 -6 -6 -7 -7 -7 -8 -8 -8 -9
18 18 18 18 17 15 14 13 11 10 9 7 6 5 4 3 3 2 1 -0 -0 -0 -1 -2 -3 -3 -3 -4 -4 -4 -4 -5 -5 -5 -6 -6 -6 -7 -7 -7 -8 -8 -8 -9
19 19 19 19 18 17 15 12 11 10 9 8 6 5 4 4 3 2 1 0 0 -1 -2 -3 -3 -3 -3 -4 -4 -4 -4 -5 -5 -6 -6 -6 -7 -7 -7 -8 -8 -8 -9 -9
19 20 20 20 19 17 15 13 11 10 9 8 7 5 4 3 3 2 1 1 1 -1 -2 -2 -2 -3 -3 -4 -4 -4 -5 -5 -5 -6 -6 -6 -7 -7 -7 -8 -8 -8 -9 -9
18 19 19 19 18 17 15 12 11 10 9 9 7 6 5 4 3 2 2 1 0 -1 -2 -2 -2 -3 -3 -4 -4 -4 -5 -5 -5 -6 -6 -6 -7 -7 -8 -8 -8 -9 -9 -9
15 16 16 16 14 13 13 13 11 10 9 8 7 6 5 4 3 3 2 2 1 -0 -1 -2 -2 -3 -3 -3 -4 -4 -4 -5 -5 -6 -6 -7 -7 -7 -8 -8 -8 -9 -9 -9
13 14 13 13 13 14 13 12 10 9 8 7 6 5 5 4 4 3 2 2 1 -1 -1 -2 -3 -3 -3 -3 -4 -4 -4 -5 -5 -6 -6 -7 -7 -7 -8 -8 -8 -9 -9 -9
11 11 11 11 11 11 12 11 10 9 8 7 6 5 4 4 3 2 2 1 0 -0 -1 -2 -3 -3 -3 -3 -4 -4 -4 -5 -5 -6 -6 -7 -7 -7 -8 -8 -9 -9 -9 -9
9 9 9 9 9 9 9 9 9 9 9 8 7 6 5 4 3 2 1 1 0 -1 -1 -2 -2 -3 -3 -3 -4 -4 -5 -5 -5 -6 -6 -7 -7 -8 -8 -8 -9 -9 -9 -10
Wind_Speed
8 6 5 7 9 9 10 10 10 11 11 16 8 10 11 11 10 9 8 7 7 4 3 3 5 6 6 7 7 7 8 8 9 10 10 10 11 11 12 12 14 14 16 17
6 3 4 8 11 10 11 8 10 12 17 10 2 4 9 12 13 11 9 9 7 6 4 4 5 5 6 6 7 7 7 8 9 10 10 11 11 11 12 12 13 13 14 16
5 6 7 9 9 10 8 10 10 11 11 3 4 8 13 15 14 12 10 8 8 7 6 5 5 5 5 6 6 7 7 8 9 9 10 10 11 11 12 11 11 12 13 14
3 8 6 7 1 7 8 10 12 11 10 7 7 4 6 9 13 12 11 10 9 7 6 5 4 4 4 5 5 6 7 8 8 8 9 10 10 10 10 8 10 9 11 13
1 4 10 11 4 7 6 10 9 13 12 3 5 3 3 8 10 11 10 9 8 7 6 4 4 3 4 5 5 6 7 8 8 8 9 9 9 9 8 8 8 9 10 11
4 2 7 8 3 5 3 8 8 10 8 9 9 4 7 11 11 10 9 8 8 7 6 5 4 2 2 4 5 6 7 8 8 7 8 8 8 8 6 7 8 10 11 10
6 7 11 8 6 7 3 8 5 9 10 14 13 8 3 13 11 10 9 8 8 7 6 6 4 2 3 4 5 6 7 7 7 7 8 8 7 6 8 9 10 9 10 10
6 6 10 8 10 11 12 3 6 8 9 13 10 5 8 12 13 13 11 9 8 7 7 5 4 4 4 5 6 6 6 7 8 8 8 8 8 8 8 8 9 9 8 9
12 12 6 12 13 10 6 7 8 8 9 12 10 9 11 11 12 12 12 10 8 8 7 5 5 5 5 5 5 6 6 7 8 8 7 7 7 8 8 7 7 8 7 8
8 15 12 13 13 12 10 10 8 9 10 15 12 13 13 13 13 12 11 10 8 8 7 7 6 6 6 5 5 5 7 7 7 7 8 8 7 7 7 8 8 8 7 8
9 12 11 11 15 17 13 10 8 9 11 16 15 14 15 15 14 13 12 9 9 9 8 8 6 6 5 5 4 5 6 7 7 7 7 8 8 6 8 7 10 11 7 7
13 12 9 10 7 8 11 13 13 12 11 10 14 17 16 14 13 13 12 10 9 9 9 8 7 6 6 5 4 4 6 6 6 6 7 7 8 9 13 13 17 16 16 15
15 8 9 9 4 7 10 12 13 15 15 13 12 14 16 11 12 12 11 12 12 11 9 8 7 6 6 5 4 5 5 6 6 6 7 7 8 9 11 13 16 16 17 19
13 6 8 9 9 9 9 8 10 10 11 12 13 13 14 11 11 14 15 14 12 9 8 8 7 7 6 5 4 5 5 7 6 5 5 6 6 7 8 10 11 10 14 18
15 16 15 8 4 6 7 8 10 11 11 10 10 13 16 16 16 16 13 11 10 9 9 8 8 8 6 5 5 5 4 4 5 4 4 5 6 6 7 9 9 10 9 12
8 11 12 11 12 10 10 12 14 16 15 15 14 15 16 15 13 12 12 13 12 13 11 10 10 7 6 6 5 4 3 6 6 4 4 5 5 6 6 7 8 9 10 10
10 12 12 12 16 15 17 17 17 17 17 18 18 16 14 12 12 13 14 14 12 10 10 11 9 7 7 6 5 4 3 4 6 4 4 5 5 5 5 6 7 8 8 12
19 22 17 14 13 16 18 17 16 16 17 17 15 16 17 18 18 17 14 12 9 8 9 9 8 7 7 6 5 4 3 3 2 3 4 4 4 4 5 6 7 8 8 10
23 24 20 17 14 14 16 18 18 17 15 16 19 20 19 18 15 14 14 14 14 13 11 10 14 11 8 9 8 4 4 3 3 3 3 5 5 4 5 5 6 7 8 9
20 20 18 15 14 13 15 14 15 16 17 18 18 17 17 15 14 15 15 15 15 10 8 11 12 10 9 9 9 5 5 4 4 3 3 3 4 5 5 6 6 7 7 8
20 18 17 17 16 14 14 16 17 18 18 20 21 21 19 16 16 15 15 14 12 10 9 14 11 9 9 9 10 6 6 5 4 3 3 3 4 4 5 5 6 7 7 8
19 18 19 17 16 15 14 15 16 18 19 19 18 16 16 17 17 14 14 11 10 17 13 9 9 13 14 13 7 7 6 6 5 4 4 3 3 4 4 5 6 6 7 8
15 14 15 15 16 13 12 14 17 18 20 21 21 21 20 17 16 15 14 11 9 18 14 10 15 19 19 12 8 8 7 7 6 5 5 4 4 4 4 5 5 6 7 7
7 7 8 8 11 13 16 16 16 14 15 16 17 17 17 15 13 12 6 16 21 19 13 15 22 22 20 9 8 8 8 7 6 6 5 5 4 4 4 4 5 5 6 8
5 6 9 12 14 14 14 13 13 12 14 12 13 14 14 12 11 13 11 13 22 21 12 17 23 23 14 9 10 9 8 8 7 6 6 5 5 4 4 4 5 5 6 7
5 6 8 10 9 7 10 12 13 13 13 13 13 13 12 9 8 10 11 12 16 20 14 11 13 16 11 10 10 10 9 8 8 7 7 6 6 5 4 4 5 5 5 7
4 4 5 6 7 8 10 12 14 15 15 15 14 13 14 13 12 12 13 13 13 13 12 11 11 11 11 11 10 9 8 7 7 7 6 6 5 5 5 5 5 6 8 9
Wind_Direction
259 262 241 245 233 200 200 208 217 247 252 272 257 219 198 177 168 171 182 189 194 203 231 268 288 298 304 312 322 331 332 332 329 326 326 328 332 334 335 339 343 341 343 345
294 225 252 265 246 220 223 225 238 264 274 272 289 151 161 172 177 186 193 195 195 200 215 247 270 289 306 313 320 328 330 327 326 330 331 333 334 336 339 340 339 341 343 344
284 301 317 280 241 190 209 211 201 231 252 193 207 196 189 187 188 192 191 190 192 199 211 231 250 273 293 304 314 327 327 324 326 327 330 331 336 339 339 335 336 338 338 342
305 352 285 248 140 179 216 244 217 240 256 218 222 199 193 183 185 187 184 183 187 189 200 217 235 266 287 305 320 327 325 322 321 324 325 326 330 334 331 326 331 332 330 336
91 308 283 293 231 182 208 278 225 229 250 165 111 74 259 204 186 183 178 175 179 183 190 201 228 260 295 314 324 327 323 318 316 316 320 323 327 326 321 322 323 326 329 332
139 222 257 256 159 158 104 284 242 202 202 158 144 191 246 184 172 164 160 160 167 171 180 202 221 242 283 307 317 316 311 308 308 310 317 315 316 316 315 319 323 329 329 329
180 227 263 250 151 142 176 254 216 186 182 171 190 207 179 153 156 155 156 160 164 172 189 205 209 217 265 289 294 296 303 305 307 310 311 306 314 311 315 323 325 321 318 320
165 203 256 194 148 186 219 209 182 191 185 188 193 143 144 155 158 159 161 162 168 178 197 205 203 208 254 274 282 297 305 307 308 308 310 322 317 311 313 316 317 313 311 317
194 219 242 178 202 219 196 203 205 198 192 175 168 171 165 166 165 167 169 172 174 182 194 210 210 209 242 264 291 307 311 308 306 308 306 309 308 307 311 310 312 315 315 323
242 261 251 227 238 244 217 218 212 192 175 172 175 173 170 170 173 174 175 177 174 179 195 212 215 220 232 263 288 302 306 306 307 307 308 311 314 312 311 310 310 311 321 324
250 270 290 264 233 236 226 215 199 183 180 181 172 172 175 176 179 180 181 177 179 188 199 209 210 224 238 252 275 295 302 304 309 312 307 310 316 310 312 305 317 334 330 319
239 230 215 251 234 203 200 206 195 180 180 182 179 177 175 179 179 178 178 175 181 193 203 205 205 223 236 243 253 279 302 311 312 310 314 319 318 320 325 331 333 339 342 343
235 242 223 251 241 191 203 205 188 186 182 182 182 177 174 171 174 174 176 181 190 195 199 197 202 221 230 232 246 262 282 300 305 312 317 321 325 328 328 332 337 342 346 346
240 247 271 246 231 211 203 188 176 182 183 177 171 170 171 162 167 179 187 190 189 187 190 193 203 222 223 220 241 261 276 297 307 300 306 312 316 321 325 329 332 334 339 345
230 220 232 244 215 183 168 154 167 182 178 171 168 170 172 174 181 188 185 177 176 184 194 196 208 222 210 210 233 256 278 283 289 297 307 311 314 320 326 330 331 331 333 340
224 223 232 234 228 198 179 184 192 195 188 181 180 183 183 182 178 174 173 173 178 195 200 200 211 212 196 203 225 247 267 301 317 323 322 321 321 326 332 333 333 334 336 334
215 236 224 228 226 210 204 202 202 196 188 188 188 180 170 165 167 176 183 187 191 194 194 199 206 196 192 197 208 227 247 288 318 325 313 308 308 317 321 323 327 330 331 333
225 238 229 219 218 211 210 207 203 194 191 190 174 167 172 179 186 188 184 179 183 198 208 202 194 188 193 197 203 209 219 244 275 293 299 304 312 317 316 316 321 327 329 334
233 239 238 226 212 200 201 201 200 194 183 173 173 180 185 188 186 177 169 174 188 207 216 201 203 196 197 206 202 193 201 225 256 279 288 314 330 317 316 318 323 325 328 336
237 237 234 225 207 199 200 191 185 184 181 176 177 180 184 185 176 170 174 189 202 202 180 183 193 191 192 203 200 183 194 209 230 259 280 296 307 313 317 322 324 324 329 333
234 231 224 219 211 201 192 183 180 183 180 179 182 185 186 181 175 173 180 201 207 184 178 188 185 188 188 196 198 182 191 202 214 231 258 283 298 307 314 320 324 327 330 332
229 225 220 212 201 198 188 181 180 177 176 182 186 181 175 175 179 185 197 201 182 185 185 187 182 190 191 194 182 183 192 199 207 216 233 252 273 292 305 313 316 321 325 324
230 222 213 202 196 185 170 178 180 178 181 184 185 184 183 182 181 186 201 201 175 185 183 189 193 195 195 190 182 188 194 199 204 210 220 232 248 265 284 298 304 311 313 314
241 221 202 174 157 165 182 187 182 182 183 184 187 185 180 177 189 199 183 177 183 187 187 193 195 196 195 182 183 190 195 200 202 206 214 225 235 248 263 279 291 299 304 309
217 184 170 173 185 196 192 173 169 170 174 183 185 185 186 183 181 187 176 173 182 185 186 194 195 196 191 178 186 192 196 201 201 201 209 218 228 239 252 266 280 293 300 304
198 196 199 205 208 190 173 173 179 181 181 184 187 187 187 178 160 162 171 175 179 185 182 185 189 195 186 184 190 193 196 206 217 211 203 211 223 231 244 257 274 282 291 297
211 200 194 201 201 186 180 183 185 185 185 185 183 182 181 178 173 169 170 176 181 184 182 183 186 187 185 187 190 192 193 195 198 201 202 208 215 223 232 246 261 278 287 294
Height
1593 1590 1590 1588 1586 1588 1590 1587 1587 1574 1568 1551 1551 1552 1553 1556 1560 1563 1565 1566 1567 1567 1566 1565 1562 1560 1556 1552 1548 1543 1537 1532 1526 1520 1514 1508 1502 1497 1491 1485 1479 1473 1466 1459
1591 1586 1588 1587 1580 1582 1582 1581 1578 1571 1560 1546 1546 1546 1548 1552 1555 1558 1560 1562 1563 1563 1563 1562 1560 1557 1554 1550 1546 1541 1536 1531 1525 1520 1514 1508 1502 1497 1491 1485 1480 1474 1467 1461
1592 1587 1582 1575 1562 1570 1569 1567 1565 1561 1548 1544 1545 1544 1544 1546 1550 1553 1556 1558 1560 1560 1560 1559 1557 1555 1552 1548 1545 1540 1536 1531 1525 1519 1514 1508 1502 1497 1491 1486 1480 1474 1469 1463
1598 1588 1576 1557 1555 1556 1557 1553 1552 1547 1541 1541 1540 1540 1541 1543 1545 1549 1552 1555 1556 1557 1556 1556 1555 1553 1550 1547 1543 1539 1535 1530 1525 1519 1514 1508 1502 1497 1491 1486 1481 1475 1470 1465
1600 1592 1579 1557 1552 1554 1555 1549 1539 1539 1536 1538 1538 1539 1538 1539 1542 1546 1549 1551 1553 1553 1553 1553 1552 1550 1548 1546 1542 1538 1534 1529 1524 1519 1514 1508 1502 1496 1491 1486 1481 1476 1471 1466
1601 1590 1579 1551 1550 1550 1553 1549 1531 1531 1531 1534 1538 1542 1534 1533 1537 1541 1545 1547 1549 1550 1550 1550 1550 1548 1546 1544 1541 1537 1532 1528 1523 1519 1514 1508 1503 1497 1491 1486 1481 1476 1471 1466
1598 1593 1569 1547 1547 1551 1554 1538 1526 1525 1525 1527 1528 1528 1528 1529 1533 1537 1541 1543 1545 1546 1547 1547 1547 1546 1544 1542 1539 1535 1531 1527 1523 1518 1514 1509 1503 1498 1492 1487 1481 1476 1471 1466
1594 1594 1565 1540 1543 1543 1531 1521 1521 1520 1520 1520 1521 1523 1525 1527 1530 1533 1536 1539 1542 1543 1544 1544 1544 1543 1542 1540 1537 1534 1530 1526 1522 1518 1513 1508 1503 1498 1492 1487 1481 1475 1470 1465
1561 1546 1528 1526 1522 1519 1518 1517 1516 1516 1516 1516 1517 1518 1521 1524 1527 1530 1533 1536 1538 1540 1541 1541 1541 1541 1540 1538 1536 1533 1529 1526 1522 1517 1513 1508 1502 1497 1491 1486 1480 1475 1470 1465
1549 1529 1520 1518 1515 1514 1513 1511 1510 1511 1511 1511 1512 1514 1517 1520 1523 1526 1529 1532 1535 1536 1537 1538 1538 1538 1537 1536 1534 1531 1528 1525 1521 1516 1512 1507 1502 1496 1490 1485 1479 1475 1470 1465
1537 1521 1514 1508 1506 1505 1505 1505 1504 1504 1505 1506 1507 1510 1513 1515 1519 1522 1525 1528 1531 1533 1534 1535 1535 1535 1535 1534 1532 1530 1527 1524 1520 1516 1511 1506 1501 1496 1490 1485 1481 1477 1471 1466
1517 1506 1507 1501 1500 1500 1499 1498 1497 1497 1498 1500 1502 1505 1508 1511 1514 1518 1521 1524 1527 1529 1530 1531 1532 1532 1532 1531 1530 1528 1525 1522 1518 1514 1510 1505 1499 1495 1491 1486 1480 1476 1472 1468
1500 1499 1498 1495 1494 1493 1492 1492 1491 1491 1492 1494 1496 1500 1503 1506 1510 1513 1517 1520 1523 1525 1527 1528 1528 1529 1529 1528 1527 1526 1523 1521 1517 1513 1509 1504 1499 1493 1487 1484 1480 1475 1470 1466
1494 1495 1491 1487 1487 1486 1486 1485 1485 1486 1487 1489 1492 1495 1498 1501 1505 1508 1511 1515 1519 1521 1523 1524 1525 1526 1526 1525 1525 1523 1522 1519 1516 1513 1509 1504 1499 1494 1488 1481 1476 1472 1468 1464
1485 1486 1483 1481 1479 1478 1478 1478 1478 1478 1480 1482 1486 1489 1492 1495 1498 1502 1507 1511 1514 1516 1518 1520 1521 1522 1522 1522 1522 1521 1520 1518 1515 1512 1508 1504 1500 1495 1489 1483 1477 1471 1466 1462
1475 1476 1474 1471 1469 1468 1468 1468 1469 1469 1472 1474 1478 1481 1486 1490 1494 1498 1502 1505 1508 1510 1513 1515 1517 1518 1519 1519 1519 1518 1518 1516 1514 1511 1508 1504 1500 1495 1489 1484 1478 1472 1466 1461
1467 1463 1462 1459 1458 1457 1457 1458 1459 1461 1464 1466 1470 1476 1480 1484 1488 1492 1495 1499 1503 1507 1509 1511 1513 1514 1515 1515 1516 1516 1515 1514 1512 1510 1507 1503 1499 1495 1490 1484 1479 1473 1467 1462
1452 1451 1450 1448 1447 1447 1447 1449 1450 1452 1454 1459 1465 1468 1472 1475 1479 1483 1488 1493 1497 1500 1503 1506 1508 1509 1510 1511 1512 1512 1512 1511 1510 1508 1506 1502 1499 1495 1490 1485 1479 1474 1468 1463
1439 1438 1437 1436 1435 1436 1436 1438 1440 1443 1447 1451 1455 1459 1463 1468 1473 1478 1483 1487 1490 1493 1497 1500 1503 1504 1506 1507 1508 1509 1509 1508 1507 1506 1504 1501 1498 1494 1490 1485 1480 1474 1468 1463
1427 1426 1425 1424 1423 1424 1424 1427 1431 1433 1437 1441 1446 1451 1456 1461 1466 1471 1475 1478 1482 1487 1493 1495 1497 1499 1501 1503 1504 1505 1505 1505 1505 1503 1502 1499 1497 1493 1489 1484 1479 1474 1469 1463
1415 1414 1413 1412 1411 1412 1414 1417 1420 1423 1427 1431 1436 1440 1447 1453 1459 1463 1467 1471 1476 1482 1486 1489 1491 1494 1496 1498 1499 1500 1501 1501 1501 1500 1499 1497 1495 1492 1488 1484 1479 1474 1469 1463
1402 1401 1400 1399 1399 1400 1403 1407 1410 1414 1418 1422 1427 1434 1440 1445 1450 1455 1459 1464 1470 1475 1479 1482 1485 1488 1491 1492 1494 1495 1496 1497 1497 1497 1496 1494 1492 1490 1486 1482 1478 1473 1468 1463
1389 1388 1387 1386 1387 1390 1393 1397 1400 1404 1408 1412 1417 1422 1428 1435 1441 1446 1450 1456 1462 1467 1471 1475 1479 1483 1485 1486 1488 1490 1491 1492 1493 1493 1492 1491 1489 1487 1484 1481 1477 1472 1467 1462
1380 1378 1377 1377 1379 1381 1383 1386 1391 1395 1401 1406 1411 1417 1422 1428 1434 1440 1445 1451 1456 1460 1464 1469 1473 1476 1478 1480 1483 1485 1486 1487 1488 1488 1488 1487 1486 1484 1481 1478 1475 1471 1466 1461
1371 1370 1369 1370 1371 1372 1375 1379 1383 1388 1393 1397 1403 1409 1415 1421 1427 1433 1438 1443 1448 1453 1457 1462 1466 1469 1472 1474 1477 1479 1481 1482 1483 1484 1484 1483 1482 1481 1479 1476 1472 1469 1464 1460
1363 1362 1361 1362 1364 1366 1367 1370 1373 1377 1382 1388 1393 1399 1406 1413 1420 1426 1432 1436 1441 1446 1450 1455 1458 1462 1464 1468 1471 1473 1475 1476 1477 1478 1479 1479 1478 1477 1475 1473 1470 1466 1462 1458
1357 1355 1355 1355 1356 1358 1360 1363 1366 1369 1374 1379 1384 1390 1397 1404 1411 1417 1423 1428 1433 1437 1442 1447 1451 1454 1458 1461 1464 1466 1469 1470 1472 1473 1473 1474 1473 1473 1471 1469 1466 1463 1459 1455